EDW598C LGMK-LSZH

Flight info

Callsign EDW598C
Flight time 2h 31m
Altitude 34000
Route KEA UN132 ROPOX UM749 SKP DCT KOGIS DCT BITLA DCT MAVAR DCT TUPUS DCT NEMEK DCT OTMOH DCT PENEP DCT ERKIR DCT KPT L856 NEGRA
Aircraft A320/M-SDE2E3FGHIJ1RWXY/LB1

Departure

Time 2026-05-08 14:15
Airport Mykonos Island National Airport (LGMK)

Arrival

Time 2026-05-08 16:46
Airport Zürich Airport (LSZH)
Time Latitude Longitude Altitude Speed Heading
2026-05-08 13:34 37.43558 25.34634 409 ft 0 kts 255°
2026-05-08 14:06 37.43561 25.34648 408 ft 4 kts 255°
2026-05-08 14:06 37.43568 25.34681 407 ft 4 kts 255°
2026-05-08 14:07 37.43575 25.34714 406 ft 4 kts 255°
2026-05-08 14:07 37.43580 25.34742 403 ft 0 kts 255°
2026-05-08 14:09 37.43578 25.34729 406 ft 5 kts 255°
2026-05-08 14:10 37.43572 25.34702 404 ft 3 kts 255°
2026-05-08 14:10 37.43599 25.34665 407 ft 7 kts 354°
2026-05-08 14:10 37.43648 25.34689 406 ft 8 kts 24°
2026-05-08 14:10 37.43709 25.34720 405 ft 12 kts 15°
2026-05-08 14:11 37.43779 25.34707 406 ft 9 kts 341°
2026-05-08 14:11 37.43855 25.34674 409 ft 16 kts 341°
2026-05-08 14:11 37.43992 25.34615 408 ft 26 kts 341°
2026-05-08 14:11 37.44158 25.34540 406 ft 23 kts 341°
2026-05-08 14:12 37.44286 25.34479 405 ft 8 kts 312°
2026-05-08 14:12 37.44317 25.34440 405 ft 6 kts 31°
2026-05-08 14:12 37.44312 25.34467 405 ft 2 kts 131°
2026-05-08 14:12 37.44290 25.34481 406 ft 4 kts 159°
2026-05-08 14:13 37.44288 25.34482 406 ft 0 kts 160°
2026-05-08 14:14 37.44024 25.34601 407 ft 81 kts 160°
2026-05-08 14:14 37.43259 25.34936 405 ft 152 kts 162°
2026-05-08 14:15 37.42179 25.35417 885 ft 170 kts 160°
2026-05-08 14:15 37.41063 25.35935 1775 ft 171 kts 161°
2026-05-08 14:15 37.39891 25.36324 2340 ft 179 kts 185°
2026-05-08 14:15 37.38780 25.35597 2678 ft 194 kts 234°
2026-05-08 14:16 37.38414 25.33916 3003 ft 215 kts 273°
2026-05-08 14:16 37.38735 25.31959 3258 ft 241 kts 280°
2026-05-08 14:16 37.39151 25.29807 3682 ft 258 kts 280°
2026-05-08 14:16 37.39562 25.27626 4503 ft 260 kts 279°
2026-05-08 14:17 37.39959 25.25411 5447 ft 257 kts 279°
2026-05-08 14:17 37.40333 25.23211 6369 ft 256 kts 278°
2026-05-08 14:17 37.40691 25.21018 7234 ft 255 kts 279°
2026-05-08 14:17 37.41056 25.18820 7988 ft 258 kts 279°
2026-05-08 14:18 37.41431 25.16599 8732 ft 261 kts 280°
2026-05-08 14:18 37.41809 25.14383 9539 ft 261 kts 281°
2026-05-08 14:18 37.42195 25.12134 10300 ft 264 kts 281°
2026-05-08 14:18 37.42591 25.09788 10529 ft 286 kts 281°
2026-05-08 14:19 37.43018 25.07237 10693 ft 307 kts 281°
2026-05-08 14:19 37.43466 25.04554 11173 ft 316 kts 281°
2026-05-08 14:19 37.43923 25.01826 11824 ft 320 kts 281°
2026-05-08 14:19 37.44382 24.99081 12546 ft 321 kts 281°
2026-05-08 14:20 37.44839 24.96353 13243 ft 323 kts 281°
2026-05-08 14:20 37.45304 24.93570 13927 ft 325 kts 282°
2026-05-08 14:20 37.45772 24.90767 14541 ft 328 kts 281°
2026-05-08 14:20 37.46244 24.87936 15140 ft 330 kts 281°
2026-05-08 14:21 37.46712 24.85126 15687 ft 333 kts 281°
2026-05-08 14:21 37.47187 24.82260 16255 ft 336 kts 281°
2026-05-08 14:21 37.47668 24.79351 16815 ft 339 kts 281°
2026-05-08 14:21 37.48146 24.76438 17362 ft 342 kts 281°
2026-05-08 14:22 37.48631 24.73483 17909 ft 345 kts 281°
2026-05-08 14:22 37.49117 24.70512 18447 ft 348 kts 281°
2026-05-08 14:22 37.49602 24.67548 18921 ft 351 kts 281°
2026-05-08 14:22 37.50105 24.64486 19412 ft 353 kts 281°
2026-05-08 14:23 37.50599 24.61481 19895 ft 355 kts 281°
2026-05-08 14:23 37.51103 24.58408 20382 ft 358 kts 281°
2026-05-08 14:23 37.51906 24.55430 20839 ft 363 kts 296°
2026-05-08 14:23 37.53457 24.52880 21307 ft 372 kts 314°
2026-05-08 14:24 37.55660 24.51057 21753 ft 383 kts 328°
2026-05-08 14:24 37.58020 24.49542 22198 ft 386 kts 328°
2026-05-08 14:24 37.60431 24.48011 22641 ft 389 kts 328°
2026-05-08 14:24 37.62865 24.46471 23091 ft 391 kts 328°
2026-05-08 14:25 37.65240 24.44785 23519 ft 389 kts 320°
2026-05-08 14:25 37.67457 24.42799 23885 ft 390 kts 319°
2026-05-08 14:25 37.69644 24.40822 24229 ft 392 kts 319°
2026-05-08 14:25 37.71869 24.38803 24584 ft 394 kts 319°
2026-05-08 14:26 37.74109 24.36770 24923 ft 396 kts 319°
2026-05-08 14:26 37.76356 24.34733 25236 ft 398 kts 319°
2026-05-08 14:26 37.78615 24.32684 25565 ft 399 kts 319°
2026-05-08 14:26 37.80879 24.30629 25892 ft 401 kts 319°
2026-05-08 14:27 37.83133 24.28583 26216 ft 402 kts 319°
2026-05-08 14:27 37.85418 24.26507 26538 ft 404 kts 319°
2026-05-08 14:27 37.87702 24.24429 26850 ft 405 kts 319°
2026-05-08 14:27 37.90002 24.22330 27183 ft 406 kts 318°
2026-05-08 14:28 37.92306 24.20228 27502 ft 407 kts 318°
2026-05-08 14:28 37.94590 24.18143 27799 ft 408 kts 318°
2026-05-08 14:28 37.96901 24.16031 28093 ft 410 kts 318°
2026-05-08 14:28 37.99225 24.13911 28384 ft 411 kts 318°
2026-05-08 14:29 38.01557 24.11781 28658 ft 412 kts 318°
2026-05-08 14:29 38.03860 24.09675 28919 ft 414 kts 318°
2026-05-08 14:29 38.06202 24.07531 29175 ft 415 kts 317°
2026-05-08 14:29 38.08555 24.05375 29437 ft 416 kts 317°
2026-05-08 14:30 38.10910 24.03213 29684 ft 417 kts 317°
2026-05-08 14:30 38.13264 24.01051 29923 ft 418 kts 317°
2026-05-08 14:30 38.15640 23.98870 30143 ft 420 kts 317°
2026-05-08 14:30 38.17991 23.96711 30314 ft 421 kts 317°
2026-05-08 14:31 38.20362 23.94534 30558 ft 421 kts 317°
2026-05-08 14:31 38.22737 23.92354 30802 ft 420 kts 317°
2026-05-08 14:31 38.25111 23.90173 31076 ft 419 kts 317°
2026-05-08 14:32 38.29840 23.85811 31555 ft 418 kts 317°
2026-05-08 14:32 38.32167 23.83659 31791 ft 417 kts 317°
2026-05-08 14:32 38.34523 23.81484 32052 ft 416 kts 317°
2026-05-08 14:32 38.36877 23.79309 32310 ft 415 kts 317°
2026-05-08 14:33 38.39214 23.77145 32558 ft 415 kts 316°
2026-05-08 14:33 38.40768 23.75703 32726 ft 414 kts 316°
2026-05-08 14:33 38.43853 23.72837 33093 ft 413 kts 316°
2026-05-08 14:33 38.46179 23.70674 33354 ft 413 kts 316°
2026-05-08 14:34 38.47724 23.69238 33529 ft 412 kts 316°
2026-05-08 14:34 38.50042 23.67084 33786 ft 411 kts 316°
2026-05-08 14:34 38.52362 23.64927 33994 ft 411 kts 316°
2026-05-08 14:34 38.54671 23.62777 34040 ft 409 kts 316°
2026-05-08 14:35 38.59271 23.58491 34033 ft 407 kts 316°
2026-05-08 14:35 38.63821 23.54244 34037 ft 406 kts 316°
2026-05-08 14:36 38.68406 23.49957 34040 ft 406 kts 316°
2026-05-08 14:36 38.72949 23.45709 34026 ft 406 kts 316°
2026-05-08 14:37 38.77529 23.41402 34031 ft 407 kts 316°
2026-05-08 14:37 38.82074 23.37118 34025 ft 407 kts 316°
2026-05-08 14:38 38.86657 23.32810 34025 ft 408 kts 316°
2026-05-08 14:38 38.91246 23.28502 34023 ft 408 kts 316°
2026-05-08 14:39 38.95794 23.24203 34019 ft 408 kts 316°
2026-05-08 14:39 39.00376 23.19860 34045 ft 408 kts 315°
2026-05-08 14:40 39.04927 23.15547 34033 ft 408 kts 315°
2026-05-08 14:40 39.09510 23.11199 34038 ft 408 kts 315°
2026-05-08 14:41 39.14099 23.06839 34041 ft 409 kts 315°
2026-05-08 14:41 39.18650 23.02513 34034 ft 409 kts 315°
2026-05-08 14:42 39.23235 22.98145 34066 ft 409 kts 315°
2026-05-08 14:42 39.27835 22.93742 34026 ft 411 kts 315°
2026-05-08 14:43 39.32413 22.89358 34018 ft 412 kts 315°
2026-05-08 14:43 39.37035 22.84943 34017 ft 412 kts 315°
2026-05-08 14:44 39.41633 22.80531 34019 ft 413 kts 315°
2026-05-08 14:44 39.46251 22.76083 34043 ft 413 kts 315°
2026-05-08 14:45 39.50863 22.71629 34039 ft 416 kts 316°
2026-05-08 14:45 39.55528 22.67123 34005 ft 419 kts 316°
2026-05-08 14:46 39.60228 22.62582 34006 ft 421 kts 316°
2026-05-08 14:46 39.64921 22.58037 34007 ft 423 kts 316°
2026-05-08 14:47 39.69659 22.53451 34013 ft 424 kts 316°
2026-05-08 14:47 39.74372 22.48873 34018 ft 424 kts 316°
2026-05-08 14:48 39.79114 22.44256 34044 ft 426 kts 317°
2026-05-08 14:48 39.83861 22.39618 34041 ft 426 kts 317°
2026-05-08 14:49 39.88593 22.35002 34032 ft 427 kts 317°
2026-05-08 14:49 39.93352 22.30344 34046 ft 427 kts 317°
2026-05-08 14:50 39.98109 22.25679 34046 ft 428 kts 317°
2026-05-08 14:50 40.02876 22.20998 34040 ft 428 kts 319°
2026-05-08 14:51 40.07628 22.16322 34024 ft 430 kts 319°
2026-05-08 14:51 40.12427 22.11591 34054 ft 431 kts 319°
2026-05-08 14:52 40.19600 22.04492 34064 ft 432 kts 319°
2026-05-08 14:53 40.24388 21.99714 34070 ft 431 kts 319°
2026-05-08 14:53 40.29163 21.94928 34073 ft 433 kts 320°
2026-05-08 14:54 40.33933 21.90145 34066 ft 435 kts 320°
2026-05-08 14:54 40.38770 21.85295 34060 ft 436 kts 320°
2026-05-08 14:55 40.43605 21.80437 34053 ft 437 kts 320°
2026-05-08 14:55 40.48432 21.75582 34039 ft 438 kts 321°
2026-05-08 14:56 40.53262 21.70716 34037 ft 439 kts 322°
2026-05-08 14:56 40.58132 21.65786 34015 ft 442 kts 321°
2026-05-08 14:57 40.62997 21.60849 34012 ft 444 kts 321°
2026-05-08 14:57 40.67899 21.55871 34015 ft 444 kts 321°
2026-05-08 14:58 40.72817 21.50874 34013 ft 445 kts 322°
2026-05-08 14:58 40.77693 21.45904 34016 ft 445 kts 321°
2026-05-08 14:59 40.82601 21.40881 34018 ft 445 kts 321°
2026-05-08 14:59 40.89962 21.33347 34012 ft 445 kts 321°
2026-05-08 15:00 40.94839 21.28344 34015 ft 445 kts 321°
2026-05-08 15:00 40.99728 21.23300 34019 ft 445 kts 321°
2026-05-08 15:01 41.04617 21.18258 34013 ft 446 kts 322°
2026-05-08 15:01 41.09524 21.13187 34029 ft 446 kts 321°
2026-05-08 15:02 41.14415 21.08124 34028 ft 447 kts 321°
2026-05-08 15:02 41.19338 21.03020 34028 ft 448 kts 321°
2026-05-08 15:03 41.24263 20.97901 34031 ft 448 kts 321°
2026-05-08 15:03 41.29149 20.92806 34033 ft 449 kts 321°
2026-05-08 15:04 41.34066 20.87669 34034 ft 449 kts 321°
2026-05-08 15:04 41.38988 20.82518 34030 ft 449 kts 321°
2026-05-08 15:05 41.43912 20.77351 34036 ft 449 kts 320°
2026-05-08 15:05 41.48802 20.72211 34029 ft 449 kts 320°
2026-05-08 15:06 41.53718 20.67038 34041 ft 449 kts 321°
2026-05-08 15:06 41.57812 20.62731 34029 ft 449 kts 321°
2026-05-08 15:07 41.62723 20.57543 34023 ft 450 kts 320°
2026-05-08 15:07 41.67618 20.52313 34025 ft 449 kts 319°
2026-05-08 15:08 41.72308 20.46845 34027 ft 449 kts 316°
2026-05-08 15:08 41.76903 20.41163 34047 ft 447 kts 316°
2026-05-08 15:09 41.81471 20.35544 34055 ft 445 kts 316°
2026-05-08 15:09 41.86069 20.29976 34042 ft 444 kts 317°
2026-05-08 15:10 41.90640 20.24454 34029 ft 443 kts 317°
2026-05-08 15:10 41.95223 20.18903 34019 ft 443 kts 316°
2026-05-08 15:11 41.99767 20.13362 34022 ft 442 kts 316°
2026-05-08 15:11 42.04333 20.07780 34014 ft 444 kts 316°
2026-05-08 15:12 42.08917 20.02168 33997 ft 445 kts 316°
2026-05-08 15:12 42.13516 19.96527 33995 ft 446 kts 316°
2026-05-08 15:13 42.18085 19.90921 33995 ft 446 kts 316°
2026-05-08 15:13 42.22687 19.85257 33996 ft 446 kts 316°
2026-05-08 15:14 42.27289 19.79586 33997 ft 447 kts 316°
2026-05-08 15:14 42.31854 19.73950 34019 ft 446 kts 315°
2026-05-08 15:15 42.36448 19.68264 34013 ft 448 kts 315°
2026-05-08 15:15 42.41063 19.62529 33996 ft 456 kts 315°
2026-05-08 15:16 42.45763 19.56680 33994 ft 459 kts 315°
2026-05-08 15:16 42.50468 19.50826 33987 ft 459 kts 315°
2026-05-08 15:17 42.55157 19.44975 33994 ft 458 kts 315°
2026-05-08 15:17 42.59830 19.39118 33989 ft 461 kts 315°
2026-05-08 15:18 42.64552 19.33197 33994 ft 462 kts 315°
2026-05-08 15:18 42.69281 19.27253 33997 ft 461 kts 315°
2026-05-08 15:19 42.73964 19.21359 33993 ft 461 kts 315°
2026-05-08 15:19 42.78676 19.15408 34000 ft 461 kts 315°
2026-05-08 15:20 42.83403 19.09434 33998 ft 462 kts 315°
2026-05-08 15:20 42.88126 19.03446 33979 ft 464 kts 315°
2026-05-08 15:21 42.92837 18.97461 33976 ft 465 kts 315°
2026-05-08 15:21 42.97582 18.91424 33981 ft 466 kts 315°
2026-05-08 15:22 43.02335 18.85359 33983 ft 466 kts 315°
2026-05-08 15:22 43.07044 18.79327 33992 ft 467 kts 314°
2026-05-08 15:23 43.11791 18.73239 34000 ft 467 kts 314°
2026-05-08 15:23 43.16509 18.67176 34000 ft 466 kts 314°
2026-05-08 15:24 43.21252 18.61073 34004 ft 467 kts 314°
2026-05-08 15:24 43.25987 18.54965 34007 ft 466 kts 314°
2026-05-08 15:25 43.30686 18.48885 34010 ft 466 kts 314°
2026-05-08 15:25 43.35416 18.42751 34031 ft 466 kts 314°
2026-05-08 15:26 43.40136 18.36621 34033 ft 466 kts 314°
2026-05-08 15:26 43.44857 18.30480 34030 ft 465 kts 314°
2026-05-08 15:27 43.49528 18.24385 34028 ft 465 kts 314°
2026-05-08 15:27 43.53852 18.18654 34028 ft 464 kts 313°
2026-05-08 15:28 43.58481 18.12394 34026 ft 464 kts 313°
2026-05-08 15:28 43.63062 18.06170 34026 ft 464 kts 313°
2026-05-08 15:29 43.67680 17.99915 34026 ft 464 kts 313°
2026-05-08 15:29 43.72295 17.93661 34019 ft 464 kts 313°
2026-05-08 15:30 43.76903 17.87399 34018 ft 463 kts 313°
2026-05-08 15:30 43.81482 17.81164 34017 ft 464 kts 312°
2026-05-08 15:31 43.86093 17.74857 34016 ft 465 kts 312°
2026-05-08 15:31 43.90702 17.68544 34014 ft 465 kts 312°
2026-05-08 15:32 43.95224 17.62339 34029 ft 453 kts 312°
2026-05-08 15:32 43.99705 17.56178 34028 ft 448 kts 312°
2026-05-08 15:33 44.04107 17.50116 34033 ft 446 kts 311°
2026-05-08 15:33 44.08518 17.44023 34032 ft 445 kts 311°
2026-05-08 15:34 44.12881 17.37976 34030 ft 445 kts 311°
2026-05-08 15:34 44.17281 17.31870 34042 ft 444 kts 311°
2026-05-08 15:35 44.21662 17.25790 34044 ft 443 kts 311°
2026-05-08 15:35 44.26002 17.19747 34045 ft 442 kts 311°
2026-05-08 15:36 44.29643 17.14646 34052 ft 442 kts 311°
2026-05-08 15:36 44.34689 17.07574 34036 ft 441 kts 311°
2026-05-08 15:37 44.39008 17.01514 34033 ft 442 kts 311°
2026-05-08 15:37 44.43357 16.95394 34023 ft 442 kts 311°
2026-05-08 15:38 44.46982 16.90289 34018 ft 443 kts 311°
2026-05-08 15:38 44.51334 16.84149 34031 ft 443 kts 311°
2026-05-08 15:39 44.55656 16.78034 34049 ft 444 kts 310°
2026-05-08 15:39 44.60010 16.71854 34041 ft 444 kts 310°
2026-05-08 15:40 44.64368 16.65665 34035 ft 444 kts 310°
2026-05-08 15:40 44.68685 16.59518 34034 ft 444 kts 310°
2026-05-08 15:41 44.73024 16.53317 34037 ft 444 kts 310°
2026-05-08 15:41 44.77367 16.47094 34063 ft 444 kts 310°
2026-05-08 15:42 44.81677 16.40910 34061 ft 443 kts 310°
2026-05-08 15:42 44.85981 16.34731 34056 ft 443 kts 310°
2026-05-08 15:43 44.90288 16.28532 34046 ft 442 kts 310°
2026-05-08 15:43 44.94590 16.22307 34059 ft 442 kts 310°
2026-05-08 15:44 44.98868 16.16109 34049 ft 442 kts 310°
2026-05-08 15:44 45.03162 16.09886 34053 ft 441 kts 310°
2026-05-08 15:45 45.07456 16.03640 34054 ft 441 kts 309°
2026-05-08 15:45 45.11731 15.97403 34051 ft 440 kts 309°
2026-05-08 15:46 45.15979 15.91195 34058 ft 440 kts 309°
2026-05-08 15:46 45.20242 15.84952 34041 ft 440 kts 309°
2026-05-08 15:47 45.24486 15.78732 34035 ft 440 kts 309°
2026-05-08 15:47 45.28740 15.72462 34032 ft 440 kts 309°
2026-05-08 15:48 45.35117 15.63065 34048 ft 439 kts 309°
2026-05-08 15:49 45.39341 15.56821 34045 ft 440 kts 309°
2026-05-08 15:49 45.43583 15.50534 34036 ft 440 kts 309°
2026-05-08 15:50 45.47824 15.44225 34037 ft 440 kts 309°
2026-05-08 15:50 45.52041 15.37943 34036 ft 440 kts 309°
2026-05-08 15:51 45.56273 15.31617 34040 ft 439 kts 309°
2026-05-08 15:51 45.59974 15.24839 34041 ft 434 kts 301°
2026-05-08 15:52 45.63495 15.17781 34039 ft 434 kts 301°
2026-05-08 15:52 45.67000 15.10746 34035 ft 434 kts 301°
2026-05-08 15:53 45.70485 15.03752 34052 ft 434 kts 301°
2026-05-08 15:53 45.73985 14.96691 34052 ft 433 kts 301°
2026-05-08 15:54 45.77713 14.89932 34047 ft 435 kts 306°
2026-05-08 15:54 45.81673 14.83321 34040 ft 435 kts 306°
2026-05-08 15:55 45.85253 14.77344 34028 ft 435 kts 306°
2026-05-08 15:55 45.91232 14.67310 34025 ft 435 kts 305°
2026-05-08 15:56 45.95175 14.60675 34012 ft 436 kts 305°
2026-05-08 15:56 45.99112 14.54021 34008 ft 436 kts 305°
2026-05-08 15:57 46.03040 14.47358 34007 ft 436 kts 305°
2026-05-08 15:57 46.06958 14.40709 34033 ft 436 kts 304°
2026-05-08 15:58 46.10883 14.34027 34038 ft 435 kts 305°
2026-05-08 15:58 46.14802 14.27402 34037 ft 434 kts 306°
2026-05-08 15:59 46.18892 14.20955 34032 ft 435 kts 308°
2026-05-08 15:59 46.23025 14.14634 34028 ft 434 kts 308°
2026-05-08 16:00 46.27147 14.08231 34043 ft 434 kts 307°
2026-05-08 16:00 46.31227 14.01777 34034 ft 434 kts 307°
2026-05-08 16:01 46.35280 13.95343 34041 ft 434 kts 306°
2026-05-08 16:01 46.39349 13.88880 34043 ft 433 kts 306°
2026-05-08 16:02 46.43416 13.82408 34041 ft 433 kts 306°
2026-05-08 16:02 46.47471 13.75953 34057 ft 432 kts 306°
2026-05-08 16:03 46.51522 13.69491 34052 ft 431 kts 306°
2026-05-08 16:03 46.55532 13.63071 34047 ft 430 kts 306°
2026-05-08 16:04 46.59540 13.56637 34052 ft 430 kts 305°
2026-05-08 16:04 46.63561 13.50166 34049 ft 430 kts 305°
2026-05-08 16:05 46.67591 13.43687 34058 ft 429 kts 306°
2026-05-08 16:05 46.71588 13.37223 34056 ft 429 kts 306°
2026-05-08 16:06 46.75560 13.30783 34044 ft 429 kts 305°
2026-05-08 16:06 46.79563 13.24284 34053 ft 430 kts 305°
2026-05-08 16:07 46.83556 13.17795 34048 ft 429 kts 306°
2026-05-08 16:07 46.87543 13.11296 34036 ft 431 kts 306°
2026-05-08 16:08 46.91558 13.04721 34026 ft 433 kts 306°
2026-05-08 16:08 46.95557 12.98163 34024 ft 435 kts 306°
2026-05-08 16:09 46.98918 12.92647 34027 ft 436 kts 306°
2026-05-08 16:09 47.03643 12.84854 34028 ft 436 kts 306°
2026-05-08 16:10 47.07663 12.78212 34040 ft 438 kts 305°
2026-05-08 16:10 47.11036 12.72639 34040 ft 438 kts 305°
2026-05-08 16:11 47.15086 12.65923 34030 ft 439 kts 304°
2026-05-08 16:11 47.19121 12.59211 34028 ft 439 kts 304°
2026-05-08 16:12 47.23188 12.52450 34031 ft 440 kts 305°
2026-05-08 16:12 47.27255 12.45658 34042 ft 440 kts 304°
2026-05-08 16:13 47.31277 12.38895 34037 ft 441 kts 304°
2026-05-08 16:13 47.35333 12.32077 34049 ft 441 kts 304°
2026-05-08 16:14 47.39366 12.25296 34057 ft 441 kts 304°
2026-05-08 16:14 47.43408 12.18475 34050 ft 440 kts 304°
2026-05-08 16:15 47.47439 12.11655 34048 ft 439 kts 304°
2026-05-08 16:15 47.51384 12.04801 34042 ft 434 kts 298°
2026-05-08 16:16 47.54097 11.97102 34031 ft 416 kts 281°
2026-05-08 16:16 47.55359 11.88826 34028 ft 410 kts 274°
2026-05-08 16:17 47.56456 11.80515 34023 ft 410 kts 275°
2026-05-08 16:17 47.57550 11.72248 34040 ft 410 kts 275°
2026-05-08 16:18 47.58648 11.63903 34036 ft 410 kts 275°
2026-05-08 16:18 47.59725 11.55631 34025 ft 410 kts 275°
2026-05-08 16:19 47.60791 11.47315 34022 ft 410 kts 274°
2026-05-08 16:19 47.61850 11.38989 34017 ft 410 kts 274°
2026-05-08 16:20 47.62899 11.30726 34029 ft 410 kts 275°
2026-05-08 16:20 47.63952 11.22392 34032 ft 410 kts 275°
2026-05-08 16:21 47.64995 11.14096 34033 ft 410 kts 275°
2026-05-08 16:21 47.66035 11.05765 34032 ft 410 kts 275°
2026-05-08 16:22 47.67064 10.97444 34038 ft 410 kts 275°
2026-05-08 16:22 47.68080 10.89151 34053 ft 410 kts 276°
2026-05-08 16:23 47.69103 10.80815 34049 ft 410 kts 276°
2026-05-08 16:23 47.70125 10.72457 34051 ft 410 kts 276°
2026-05-08 16:24 47.71133 10.64115 34046 ft 410 kts 276°
2026-05-08 16:24 47.71637 10.59930 33723 ft 409 kts 276°
2026-05-08 16:24 47.72132 10.55810 32919 ft 410 kts 276°
2026-05-08 16:25 47.72625 10.51661 32295 ft 407 kts 276°
2026-05-08 16:25 47.73116 10.47520 31716 ft 403 kts 276°
2026-05-08 16:25 47.73599 10.43427 31166 ft 399 kts 276°
2026-05-08 16:25 47.74076 10.39393 30643 ft 395 kts 276°
2026-05-08 16:26 47.74487 10.35411 30135 ft 389 kts 271°
2026-05-08 16:26 47.74527 10.31436 29543 ft 382 kts 265°
2026-05-08 16:26 47.74432 10.27470 28935 ft 380 kts 265°
2026-05-08 16:26 47.74341 10.23575 28349 ft 377 kts 265°
2026-05-08 16:27 47.74248 10.19667 27765 ft 375 kts 265°
2026-05-08 16:27 47.74161 10.15852 27212 ft 373 kts 266°
2026-05-08 16:27 47.74074 10.12004 26657 ft 371 kts 266°
2026-05-08 16:27 47.73988 10.08171 26126 ft 369 kts 266°
2026-05-08 16:28 47.73897 10.04386 25619 ft 366 kts 266°
2026-05-08 16:28 47.73803 10.00590 25109 ft 365 kts 266°
2026-05-08 16:28 47.73710 9.96840 24616 ft 363 kts 267°
2026-05-08 16:28 47.73618 9.93085 24289 ft 362 kts 267°
2026-05-08 16:29 47.73525 9.89354 24082 ft 362 kts 267°
2026-05-08 16:29 47.73431 9.85653 24008 ft 362 kts 267°
2026-05-08 16:29 47.73333 9.81901 24016 ft 363 kts 267°
2026-05-08 16:29 47.73233 9.78125 24015 ft 363 kts 267°
2026-05-08 16:30 47.73131 9.74363 24008 ft 363 kts 267°
2026-05-08 16:30 47.73028 9.70614 24015 ft 363 kts 267°
2026-05-08 16:30 47.72928 9.66908 24006 ft 363 kts 266°
2026-05-08 16:30 47.72824 9.63156 24003 ft 363 kts 266°
2026-05-08 16:31 47.72719 9.59423 23701 ft 359 kts 267°
2026-05-08 16:31 47.72615 9.55699 23162 ft 358 kts 267°
2026-05-08 16:31 47.72512 9.52061 22578 ft 357 kts 267°
2026-05-08 16:31 47.72404 9.48378 22098 ft 354 kts 266°
2026-05-08 16:32 47.72055 9.44766 21621 ft 351 kts 255°
2026-05-08 16:32 47.71186 9.41379 21136 ft 349 kts 243°
2026-05-08 16:32 47.69871 9.38408 20663 ft 349 kts 232°
2026-05-08 16:32 47.68333 9.35621 20194 ft 347 kts 231°
2026-05-08 16:33 47.66788 9.32811 19727 ft 346 kts 231°
2026-05-08 16:33 47.65289 9.30083 19279 ft 344 kts 231°
2026-05-08 16:33 47.63770 9.27323 18833 ft 343 kts 231°
2026-05-08 16:33 47.62269 9.24594 18404 ft 342 kts 231°
2026-05-08 16:34 47.60775 9.21853 17972 ft 340 kts 234°
2026-05-08 16:34 47.59587 9.18876 17597 ft 338 kts 246°
2026-05-08 16:34 47.58870 9.15565 17223 ft 337 kts 258°
2026-05-08 16:34 47.58453 9.12153 16857 ft 335 kts 259°
2026-05-08 16:35 47.58030 9.08744 16492 ft 334 kts 259°
2026-05-08 16:35 47.57609 9.05346 16201 ft 338 kts 260°
2026-05-08 16:35 47.57489 9.01876 15947 ft 341 kts 272°
2026-05-08 16:35 47.57659 8.98381 15581 ft 337 kts 273°
2026-05-08 16:36 47.57827 8.94976 15457 ft 326 kts 273°
2026-05-08 16:36 47.57989 8.91665 15274 ft 317 kts 272°
2026-05-08 16:36 47.58339 8.88501 14959 ft 316 kts 289°
2026-05-08 16:36 47.59455 8.85655 14602 ft 316 kts 304°
2026-05-08 16:37 47.60726 8.83054 14317 ft 312 kts 304°
2026-05-08 16:37 47.61974 8.80506 14110 ft 297 kts 304°
2026-05-08 16:37 47.63182 8.78063 13640 ft 291 kts 304°
2026-05-08 16:37 47.64387 8.75628 13124 ft 293 kts 304°
2026-05-08 16:38 47.65581 8.73215 12956 ft 285 kts 304°
2026-05-08 16:38 47.66735 8.70884 12620 ft 284 kts 304°
2026-05-08 16:38 47.67920 8.68485 12102 ft 290 kts 304°
2026-05-08 16:38 47.69123 8.66041 11598 ft 295 kts 304°
2026-05-08 16:39 47.70324 8.63600 11085 ft 293 kts 304°
2026-05-08 16:39 47.71515 8.61177 10576 ft 286 kts 304°
2026-05-08 16:39 47.72673 8.58825 10094 ft 278 kts 304°
2026-05-08 16:39 47.73810 8.56522 9587 ft 272 kts 304°
2026-05-08 16:40 47.74916 8.54262 9340 ft 264 kts 304°
2026-05-08 16:40 47.75886 8.51981 8999 ft 260 kts 290°
2026-05-08 16:40 47.76167 8.49401 8506 ft 253 kts 261°
2026-05-08 16:40 47.75561 8.47027 8021 ft 245 kts 231°
2026-05-08 16:41 47.74257 8.45459 7549 ft 244 kts 207°
2026-05-08 16:41 47.72636 8.44606 7101 ft 248 kts 195°
2026-05-08 16:41 47.70955 8.44191 6664 ft 247 kts 185°
2026-05-08 16:42 47.67580 8.43833 5831 ft 242 kts 184°
2026-05-08 16:42 47.65903 8.43665 5535 ft 240 kts 184°
2026-05-08 16:42 47.64265 8.43501 5184 ft 233 kts 184°
2026-05-08 16:42 47.62659 8.43340 4812 ft 228 kts 184°
2026-05-08 16:43 47.61086 8.43184 4432 ft 231 kts 184°
2026-05-08 16:43 47.59460 8.43027 4056 ft 233 kts 184°
2026-05-08 16:43 47.57867 8.42885 3787 ft 230 kts 181°
2026-05-08 16:43 47.56305 8.43235 3490 ft 227 kts 159°
2026-05-08 16:44 47.55350 8.43934 3294 ft 225 kts 144°
2026-05-08 16:44 47.54173 8.45427 3011 ft 224 kts 136°
2026-05-08 16:44 47.53049 8.46978 2722 ft 215 kts 136°
2026-05-08 16:44 47.52003 8.48412 2480 ft 200 kts 137°
2026-05-08 16:45 47.51011 8.49771 2183 ft 187 kts 136°
2026-05-08 16:45 47.50099 8.51017 1969 ft 167 kts 134°
2026-05-08 16:45 47.49284 8.52132 1704 ft 152 kts 135°
2026-05-08 16:45 47.48549 8.53145 1539 ft 138 kts 134°
2026-05-08 16:46 47.47879 8.54065 1404 ft 119 kts 137°
2026-05-08 16:46 47.47390 8.54727 1390 ft 75 kts 137°
2026-05-08 16:46 47.47037 8.55214 1386 ft 64 kts 138°
2026-05-08 16:46 47.46774 8.55562 1397 ft 28 kts 148°
2026-05-08 16:47 47.46640 8.55664 1396 ft 11 kts 156°
2026-05-08 16:47 47.46578 8.55690 1398 ft 8 kts 167°
2026-05-08 16:47 47.46528 8.55705 1397 ft 10 kts 170°
2026-05-08 16:47 47.46434 8.55731 1397 ft 14 kts 169°
2026-05-08 16:48 47.46361 8.55783 1402 ft 10 kts 136°
2026-05-08 16:48 47.46346 8.55803 1399 ft 10 kts 136°